Find Starlink 30918

NORAD ID: 58365 Int'l Des: 2023-177 Owner: SPXS Country: US Constellation: starlink operational
LEOCIRCULAR

Live-Position

3D-Globus wird geladen...

Über Starlink 30918

Beschreibung wird geladen...

Nächste Überflüge

Passes for default location (London). Set your location on the main map for personalized predictions.

Höhenverlauf

Loading altitude history...

Zweizeiliger Elementsatz

1 58365U 23177Q 26121.18017399 .00006205 00000-0 23477-3 0 9996
2 58365 43.0042 54.2950 0001233 255.0664 105.0051 15.27586432136245
Epoch: 1. Mai 2026 • Age: 6 hours

Aktueller Status

Höhe 489.2 km
Geschwindigkeit 7.62 km/s
Subsatellitenpunkt -27.10°S, 103.29°W
Startdatum 18. Nov. 2023
Alter 2.4 years
Typ internet

Technische Details

Klassifizierung Payload
Masse 730.00 kg
Trockenmasse 700.00 kg
Gesamtmasse 730.00 kg
Länge 0.30 m
Durchmesser 4.10 m
Spannweite 29.00 m
Form Box + pan
Hersteller SPXS
Bus-Typ Starlink V2M
Phasenstatus In Orbit
Besitzer/Staat SPXS/US

Most Searched